TITAN 3C TRANSTAGE DEB, 19518

Orbit data source: Space-Track

TITAN 3C TRANSTAGE DEB, 19518 is space debris in HEO originally from a launch on Tue, 21 Dec 1965 UTC launched from the Air Force Eastern Test Range (AFETR). Debris objects in space refer to the collection of defunct objects orbiting the Earth. Examples of debris include non-operational satellites, rocket bodies, and fragments generated from explosions, collisions, or faulty payload assembly.

Loading next visibility...
Identifier
19518, 1965-108Z
Orbit
HEO
Country
Flag of USUS
Related business
Manufacturer
Unknown
Mission
Spacecraft
Bus & Motor
Unknown
Mass
Unknown
Launch date (UTC)
1965-12-21 (61 years ago)
Launch vehicle
Unknown
Launch site
Air Force Eastern Test Range (AFETR)
Object type
Payload
Rocket body
Debris
Shape & HBR
Unknown shape, 0.1 m
Radar Cross Section
Medium (>0.1 m² and <1 m²)

Expand to show TLE details & history
Last TLE update: 6 days ago

TLE from 6 days ago
0 TITAN 3C TRANSTAGE DEB
1 19518U 65108Z   26248.34113153  .00000480  00000-0  47195-2 0  9997
2 19518  26.2823 231.2698 6628413 150.6234 358.7471  2.92160668347101
Epoch: 2026-09-05T08:11Z
TLE epoch observation values (Epoch: 2026-09-05T08:11:13.764Z)
Latitude
15.49457°
Longitude
-89.93311°
Altitude
613.251 km
Speed
9.734 km/s
True Right ascension
01h 09m 18s
True Declination
15° 24' 16"
Sunlit
Object was in full shadow at epoch
Visualization orbit readout
Latitude
Unknown
Longitude
Unknown
Altitude
Unknown
Speed
Unknown
Apparent Right ascension
Unknown
Apparent Declination
Unknown
Sunlit
N/A
Visualization observer readout
Local Sidereal Time
22:18:27
Azimuth
Unknown
Elevation
Unknown
Doppler factor
Unknown
Orbital elements
Apogee altitude
27,997.206 km
Perigee altitude
591.828 km
Semi-major axis
20,672.654 km
Eccentricity
0.66284
Inclination
26.2823°
RAAN
231.2698°
Arg. of periapsis
150.6234°
True anomaly
351.77003°
Mean anomaly
358.7471°
Eccentric anomaly
356.28905°
Mean motion
0.73021 °/min
Orbital period
493.01 mins
BSTAR
0.0047195
Loading maneuver chart data...
Computing Atmospheric mass density...

Documentation

Showing up to 5 results
|